Weather in Listvyagi

Russia / Omsk Oblast     57°14′05″N   71°54′45″E
temp.,
°C
wind,
m/s
gust,
m/s
humid.,
%
clouds,
%
prec.,
mm/h
press.,
hPa
HPBL,
m
10 may, mon
mon1000:00+10ene3115383 0.0 1023403
03:00+8ene31060100 0.0 1023304
06:00+7ene3964100 0.0 1025267
09:00+11ene474598 0.0 1026808
12:00+15ene463330 0.0 10261630
15:00+18ene46280 0.0 10251965
18:00+18ne45292 0.0 10252025
21:00+12ne22502 0.0 102517
11 may, tue
tue1100:00+9nne12610 0.0 102610
03:00+8ne22700 0.0 102618
06:00+7ne23740 0.0 102762
09:00+13ne23490 0.0 1027583
12:00+17nne34330 0.0 10271498
15:00+20nne34250 0.0 10251775
18:00+20n34250 0.0 10251736
21:00+14e114291 0.0 102511
12 may, wed
wed1200:00+12ssw2244100 0.0 102520
03:00+10sw2351100 0.0 102459
06:00+11w2457100 0.0 102386
09:00+15nw3748100 0.0 1023405
12:00+17nnw465832 0.0 10231270
15:00+19nnw5732100 0.0 10221955
18:00+17nnw58335 0.0 10231763
21:00+13nnw224997 0.0 102332
13 may, thu
thu1300:00+12n235293 0.0 102481
03:00+11n1358100 0.0 102480
06:00+10n1357100 0.0 102590
09:00+14nnw234439 0.0 1025717
12:00+16nw455032 0.0 10231444
15:00+18wnw354798 0.0 10221313
18:00+16w266449 0.1 1021435
21:00+15wnw3107927 0.5 1020406
14 may, fri
fri1400:00+13n4107989 0.6 1022556
03:00+9n28957 0.0 1024227
06:00+7n3791100 0.0 1026389
09:00+11n245654 0.0 1027641
12:00+16nw243244 0.0 10261099
15:00+20w363514 0.0 10231570
18:00+22wsw494280 0.0 10201494
21:00+18w386530 0.4 1019169